Home   Weather   Nuremberg   Past weeks

Flag for Germany Past Weather in Nuremberg, Bavaria, Germany — Yesterday and Last 2 Weeks

Now
63 °F

Clear.


Feels Like: 63 °F
Forecast: 58 / 67 °F
Wind: 3 mph from East

Location: Nuernberg

Current Time: Jun 28, 2017 at 4:02:47 am

Latest Report: Jun 28, 2017 at 3:20 am


Visibility: 10 mi

Pressure: 29.62 "Hg

Humidity: 88%

Dew Point: 59 °F

Location of NurembergLocation

Past Weather in Nuremberg — Graph

°F

Nuremberg Temperature Yesterday

Maximum temperature yesterday: 75 °F (at 4:20 pm)
Minimum temperature yesterday: 61 °F (at 3:50 am)
Average temperature yesterday: 66 °F

High & Low Weather Summary for the Past Weeks

 TemperatureHumidityPressure
High93 °F (Jun 22, 3:20 pm)100% (Jun 18, 3:29 am)30.33 "Hg (Jun 18, 3:29 am)
Low46 °F (Jun 18, 5:50 am)20% (Jun 19, 5:20 pm)29.62 "Hg (Jun 28, 3:20 am)
Average69 °F60%30.04 "Hg
* Reported Jun 13 3:20 am — Jun 28 3:20 am, Nuremberg. Weather by CustomWeather, © 2017

Note: Actual official high and low records may vary slightly from our data, if they occured in-between our weather recording intervals... More about our weather records

Advertising

Nuremberg Weather History for the Previous 24 Hours

Scroll right to see more
 ConditionsComfort  
Time TempWeatherWind HumidityBarometerVisibility
3:20 am
Wed, Jun 28
63 °FClear.3 mph88%29.62 "Hg10 mi
2:20 am63 °FPassing clouds.6 mph88%29.65 "HgN/A
1:50 am63 °FClear.9 mph88%29.65 "Hg10 mi
1:20 am63 °FClear.8 mph88%29.65 "Hg10 mi
12:50 am63 °FPassing clouds.5 mph88%29.68 "HgN/A
12:20 am64 °FPassing clouds.6 mph83%29.68 "HgN/A
11:50 pm
Tue, Jun 27
64 °FPassing clouds.6 mph83%29.68 "HgN/A
11:20 pm64 °FPassing clouds.8 mph88%29.68 "HgN/A
10:50 pm66 °FPassing clouds.8 mph83%29.71 "HgN/A
10:20 pm66 °FPassing clouds.7 mph83%29.71 "HgN/A
9:50 pm66 °FClear.9 mph83%29.71 "Hg10 mi
9:20 pm66 °FPartly sunny.8 mph88%29.71 "HgN/A
8:50 pm66 °FBroken clouds.3 mph88%29.71 "HgN/A
8:20 pm66 °FSprinkles. Broken clouds.5 mph88%29.74 "HgN/A
7:50 pm68 °FBroken clouds.7 mph78%29.74 "HgN/A
7:20 pm70 °FBroken clouds.8 mph73%29.74 "HgN/A
6:50 pm70 °FPartly sunny.8 mph73%29.77 "HgN/A
6:20 pm72 °FPartly sunny.13 mph69%29.77 "HgN/A
5:50 pm73 °FScattered clouds.12 mph65%29.77 "HgN/A
5:20 pm75 °FScattered clouds.12 mph61%29.77 "HgN/A
4:50 pm75 °FPassing clouds.10 mph61%29.80 "HgN/A
4:20 pm75 °FPassing clouds.10 mph65%29.80 "HgN/A
3:50 pm73 °FPassing clouds.9 mph65%29.80 "HgN/A
3:20 pm73 °FScattered clouds.9 mph69%29.80 "HgN/A
2:50 pm72 °FScattered clouds.7 mph73%29.83 "HgN/A
2:20 pm72 °FPartly sunny.8 mph78%29.83 "HgN/A
1:50 pm70 °FPartly sunny.9 mph83%29.83 "HgN/A
1:20 pm70 °FBroken clouds.8 mph83%29.83 "HgN/A
12:50 pm70 °FBroken clouds.7 mph83%29.86 "HgN/A
12:20 pm68 °FBroken clouds.6 mph83%29.86 "HgN/A
11:50 am66 °FBroken clouds.8 mph88%29.86 "HgN/A
11:20 am66 °FBroken clouds.5 mph88%29.86 "HgN/A
10:50 am64 °FBroken clouds.7 mph94%29.86 "HgN/A
10:20 am64 °FLight rain. Broken clouds.6 mph94%29.86 "HgN/A
9:50 am64 °FPartly sunny.6 mph94%29.89 "HgN/A
9:20 am63 °FLight rain. Partly sunny.3 mph94%29.86 "Hg6 mi
8:50 am61 °FLight rain. Partly sunny.3 mph100%29.89 "Hg5 mi
8:20 am61 °FLight rain. Partly sunny.2 mph100%29.89 "Hg5 mi
7:50 am61 °FRain showers. Partly sunny.5 mph94%29.89 "Hg5 mi
7:20 am61 °FRain showers. Partly sunny.2 mph94%29.89 "Hg6 mi
6:50 am61 °FSprinkles. Partly sunny.1 mph100%29.89 "HgN/A
6:31 am61 °FSprinkles. Partly sunny.1 mph94%29.89 "HgN/A
6:20 am61 °FRain showers. Partly sunny.3 mph94%29.89 "HgN/A
5:50 am63 °FThunderstorms. Partly sunny.3 mph83%29.89 "HgN/A
5:20 am63 °FScattered showers. Clear.2 mph83%29.86 "HgN/A
5:03 am63 °FPassing clouds.6 mph83%29.86 "HgN/A
4:50 am63 °FClear.10 mph83%29.86 "Hg10 mi
4:20 am63 °FClear.2 mph83%29.86 "Hg10 mi
Weather by CustomWeather, © 2017

See weather overviewHow to use our weather pages